Hourly Data Report for October 22, 2013

All times are specified in Local Standard Time (LST). Add 1 hour to adjust for Daylight Saving Time where and when it is observed.

SAINT JOHN A
NEW BRUNSWICK

45°18'58.000" N
65°53'24.000" W
108.80 m
8104901
71609
YSJ

Related Data

No related data is available for this station

Download Data

Hourly Data (October 2013)
Hourly Data Report for October 22, 2013
Temp Definition
°C
Dew Point Temp Definition
°C
Rel Hum Definition
%
Wind Dir Definition
10's deg

Wind Spd Definition
km/h
Visibility Definition
km
Stn Press Definition
kPa
Hmdx Definition


Wind Chill Definition


Weather Definition


TIME
00:00 Legend Double Dagger 0.3 0.0 98 2 5 24.1 100.40     LegendNANA
01:00 Legend Double Dagger -0.6 -0.9 98 3 2 24.1 100.40   -1 LegendNANA
02:00 Legend Double Dagger 0.2 0.1 99   0 24.1 100.39     Mainly Clear
03:00 Legend Double Dagger 1.2 0.9 98 3 1 24.1 100.33     LegendNANA
04:00 Legend Double Dagger 3.2 2.5 95 13 1 24.1 100.32     LegendNANA
05:00 Legend Double Dagger 4.2 3.6 96 17 4 24.1 100.31     Mostly Cloudy
06:00 Legend Double Dagger 7.0 6.9 99 17 6 24.1 100.27     LegendNANA
07:00 Legend Double Dagger 8.8 8.4 97 15 12 24.1 100.24     LegendNANA
08:00 Legend Double Dagger 9.0 8.4 96 14 13 24.1 100.23     Cloudy
09:00 Legend Double Dagger 10.4 9.2 92 15 11 24.1 100.19     LegendNANA
10:00 Legend Double Dagger 12.6 9.5 81 18 19 24.1 100.10     LegendNANA
11:00 Legend Double Dagger 12.9 9.2 78 19 27 24.1 100.10     Mostly Cloudy
12:00 Legend Double Dagger 12.1 9.0 81 19 26 24.1 99.99     LegendNANA
13:00 Legend Double Dagger 11.4 9.0 85 16 11 24.1 99.88     LegendNANA
14:00 Legend Double Dagger 11.6 10.2 91 17 10 24.1 99.77     Rain Showers
15:00 Legend Double Dagger 12.8 9.5 80 18 16 24.1 99.69     LegendNANA
16:00 Legend Double Dagger 12.9 7.6 70 17 18 24.1 99.62     LegendNANA
17:00 Legend Double Dagger 11.9 8.0 77 15 19 16.1 99.52     Rain Showers
18:00 Legend Double Dagger 12.5 8.4 76 17 27 16.1 99.47     Rain Showers
19:00 Legend Double Dagger 12.0 9.6 85 17 19 16.1 99.42     LegendNANA
20:00 Legend Double Dagger 11.3 10.5 95 19 16 8.1 99.37     Rain,Fog
21:00 Legend Double Dagger 11.1 10.7 97 17 13 9.7 99.28     Rain,Fog
22:00 Legend Double Dagger 11.3 11.0 98 19 14 9.7 99.23     Rain,Fog
23:00 Legend Double Dagger 11.0 10.7 98 20 8 12.9 99.20     Rain,Fog

Notes on Data Quality.

Legend

  • E = Estimated
  • M = Missing
  • NA = Not Available
  • ‡ = Partner data that is not subject to review by the National Climate Archives
Date modified: